,,,PA_Meas_PMT16A,,PR_Meas_QMR101_102,,RH_Meas_QMH101,,SR_Meas_QMS101,,TA_Meas_QMH101,,GenWind,,GenWind,
date,time,status,PA,status,PR,status,RH,status,SR,status,TA,status,DirAvg,status,SpdAvg,
2010-05-06, 00:00:04,VALID,1002.76,VALID,0,VALID,94.3311,VALID,0,VALID,25.4734,VALID,352,VALID,0.469922,
2010-05-06, 00:01:04,VALID,1002.76,VALID,0,VALID,94.4684,VALID,0,VALID,25.4948,VALID,345,VALID,0.401953,
2010-05-06, 00:02:04,VALID,1002.76,VALID,0,VALID,94.56,VALID,0,VALID,25.4753,VALID,347,VALID,0.828906,
2010-05-06, 00:03:04,VALID,1002.77,VALID,0,VALID,94.6363,VALID,0,VALID,25.4734,VALID,346,VALID,0.132031,
2010-05-06, 00:04:04,VALID,1002.78,VALID,0,VALID,94.6591,VALID,0,VALID,25.4928,VALID,355,VALID,0.533203,
2010-05-06, 00:05:04,VALID,1002.79,VALID,0,VALID,94.5829,VALID,0,VALID,25.4539,VALID,355,VALID,0.455078,
2010-05-06, 00:06:04,VALID,1002.78,VALID,0,VALID,94.6134,VALID,0,VALID,25.4539,VALID,355,VALID,0.376563,
2010-05-06, 00:07:04,VALID,1002.82,VALID,0,VALID,94.682,VALID,0,VALID,25.4344,VALID,355,VALID,0.441406,
2010-05-06, 00:08:04,VALID,1002.83,VALID,0,VALID,94.7278,VALID,0,VALID,25.4558,VALID,355,VALID,0.251953,
2010-05-06, 00:09:04,VALID,1002.82,VALID,0,VALID,94.6744,VALID,0,VALID,25.4149,VALID,355,VALID,0.303125,
2010-05-06, 00:10:04,VALID,1002.81,VALID,0,VALID,94.7202,VALID,0,VALID,25.3779,VALID,355,VALID,0.24375,
2010-05-06, 00:11:04,VALID,1002.82,VALID,0,VALID,94.8117,VALID,0,VALID,25.3584,VALID,355,VALID,0.301562,
2010-05-06, 00:12:04,VALID,1002.79,VALID,0,VALID,94.8651,VALID,0,VALID,25.339,VALID,355,VALID,0,
2010-05-06, 00:13:04,VALID,1002.8,VALID,0,VALID,94.9185,VALID,0,VALID,25.2592,VALID,355,VALID,0,
2010-05-06, 00:14:04,VALID,1002.78,VALID,0,VALID,95.0101,VALID,0.100563,VALID,25.2806,VALID,355,VALID,0.214844,
2010-05-06, 00:15:04,VALID,1002.77,VALID,0,VALID,95.1093,VALID,0,VALID,25.2397,VALID,355,VALID,0.332031,
2010-05-06, 00:16:04,VALID,1002.8,VALID,0,VALID,95.2466,VALID,0,VALID,25.2202,VALID,355,VALID,0.171875,
2010-05-06, 00:17:04,VALID,1002.75,VALID,0,VALID,95.3076,VALID,0.100563,VALID,25.2221,VALID,355,VALID,0,
2010-05-06, 00:18:04,VALID,1002.74,VALID,0,VALID,95.3839,VALID,0,VALID,25.1618,VALID,355,VALID,0,
2010-05-06, 00:19:04,VALID,1002.73,VALID,0,VALID,95.4678,VALID,0,VALID,25.1618,VALID,355,VALID,0,
2010-05-06, 00:20:04,VALID,1002.69,VALID,0,VALID,95.567,VALID,0.100563,VALID,25.1832,VALID,355,VALID,0,
2010-05-06, 00:21:04,VALID,1002.68,VALID,0,VALID,95.5899,VALID,0,VALID,25.1229,VALID,355,VALID,0,
2010-05-06, 00:22:04,VALID,1002.67,VALID,0,VALID,95.6433,VALID,0,VALID,25.1034,VALID,355,VALID,0,
2010-05-06, 00:23:04,VALID,1002.65,VALID,0,VALID,95.7348,VALID,0,VALID,25.1248,VALID,355,VALID,0,
2010-05-06, 00:24:04,VALID,1002.66,VALID,0,VALID,95.8264,VALID,0,VALID,25.1442,VALID,355,VALID,0.281641,
2010-05-06, 00:25:04,VALID,1002.66,VALID,0,VALID,95.8493,VALID,0,VALID,25.1034,VALID,355,VALID,0.435937,
2010-05-06, 00:26:04,VALID,1002.65,VALID,0,VALID,95.9179,VALID,0,VALID,25.0839,VALID,355,VALID,0.444141,
2010-05-06, 00:27:04,VALID,1002.64,VALID,0,VALID,95.9561,VALID,0.100563,VALID,25.0839,VALID,355,VALID,0.383594,
2010-05-06, 00:28:04,VALID,1002.64,VALID,0,VALID,96.0018,VALID,0,VALID,25.0644,VALID,355,VALID,0.21875,
2010-05-06, 00:29:04,VALID,1002.63,VALID,0,VALID,96.0476,VALID,0,VALID,25.1053,VALID,355,VALID,0.454297,
2010-05-06, 00:30:04,VALID,1002.65,VALID,0,VALID,96.0781,VALID,0,VALID,25.1053,VALID,357,VALID,0.498437,
2010-05-06, 00:31:04,VALID,1002.62,VALID,0,VALID,96.0857,VALID,0,VALID,25.0839,VALID,357,VALID,0.470313,
2010-05-06, 00:32:04,VALID,1002.63,VALID,0,VALID,96.1086,VALID,0,VALID,25.0644,VALID,357,VALID,0.421875,
2010-05-06, 00:33:04,VALID,1002.61,VALID,0,VALID,96.1163,VALID,0,VALID,25.0644,VALID,357,VALID,0.185156,
2010-05-06, 00:34:04,VALID,1002.62,VALID,0,VALID,96.1086,VALID,0,VALID,25.0663,VALID,357,VALID,0.255859,
2010-05-06, 00:35:04,VALID,1002.63,VALID,0,VALID,96.1239,VALID,0,VALID,25.0663,VALID,357,VALID,0.418359,
2010-05-06, 00:36:04,VALID,1002.6,VALID,0,VALID,96.1544,VALID,0,VALID,25.0663,VALID,357,VALID,0.266797,
2010-05-06, 00:37:04,VALID,1002.6,VALID,0,VALID,96.1773,VALID,0,VALID,25.0663,VALID,357,VALID,0.205859,
2010-05-06, 00:38:04,VALID,1002.57,VALID,0,VALID,96.2231,VALID,0,VALID,25.0858,VALID,357,VALID,0.248828,
2010-05-06, 00:39:04,VALID,1002.59,VALID,0,VALID,96.2841,VALID,0,VALID,25.0839,VALID,357,VALID,0,
2010-05-06, 00:40:04,VALID,1002.57,VALID,0,VALID,96.2994,VALID,0,VALID,25.1229,VALID,357,VALID,0,
2010-05-06, 00:41:04,VALID,1002.56,VALID,0,VALID,96.3451,VALID,0,VALID,25.1618,VALID,357,VALID,0.346484,
2010-05-06, 00:42:04,VALID,1002.6,VALID,0,VALID,96.3375,VALID,0,VALID,25.2027,VALID,357,VALID,0.428125,
2010-05-06, 00:43:04,VALID,1002.58,VALID,0,VALID,96.3375,VALID,0,VALID,25.2611,VALID,357,VALID,0.155859,
2010-05-06, 00:44:04,VALID,1002.59,VALID,0,VALID,96.2994,VALID,0,VALID,25.2592,VALID,357,VALID,0.272266,
2010-05-06, 00:45:04,VALID,1002.58,VALID,0,VALID,96.246,VALID,0.100563,VALID,25.2806,VALID,357,VALID,0.319922,
2010-05-06, 00:46:04,VALID,1002.56,VALID,0,VALID,96.2078,VALID,0,VALID,25.2786,VALID,357,VALID,0.301172,
2010-05-06, 00:47:04,VALID,1002.59,VALID,0,VALID,96.1468,VALID,0,VALID,25.3176,VALID,357,VALID,0.407031,
2010-05-06, 00:48:04,VALID,1002.58,VALID,0,VALID,96.0857,VALID,0,VALID,25.337,VALID,357,VALID,0.332031,
2010-05-06, 00:49:04,VALID,1002.57,VALID,0,VALID,96.0018,VALID,0,VALID,25.339,VALID,357,VALID,0.339453,
2010-05-06, 00:50:04,VALID,1002.58,VALID,0,VALID,95.9255,VALID,0,VALID,25.3584,VALID,355,VALID,0.617578,
2010-05-06, 00:51:04,VALID,1002.55,VALID,0,VALID,95.8798,VALID,0,VALID,25.3565,VALID,355,VALID,0.45,
2010-05-06, 00:52:04,VALID,1002.54,VALID,0,VALID,95.8416,VALID,0,VALID,25.376,VALID,338,VALID,0.472266,
2010-05-06, 00:53:04,VALID,1002.54,VALID,0,VALID,95.7959,VALID,0,VALID,25.3955,VALID,338,VALID,0.424609,
2010-05-06, 00:54:04,VALID,1002.54,VALID,0,VALID,95.7501,VALID,0,VALID,25.4149,VALID,339,VALID,0.653125,
2010-05-06, 00:55:04,VALID,1002.53,VALID,0,VALID,95.6814,VALID,0,VALID,25.4149,VALID,339,VALID,0.554688,
2010-05-06, 00:56:04,VALID,1002.53,VALID,0,VALID,95.628,VALID,0.100563,VALID,25.3955,VALID,339,VALID,0.483984,
2010-05-06, 00:57:04,VALID,1002.53,VALID,0,VALID,95.5746,VALID,0,VALID,25.4149,VALID,339,VALID,0.719922,
2010-05-06, 00:58:05,VALID,1002.51,VALID,0,VALID,95.567,VALID,0.100563,VALID,25.4753,VALID,345,VALID,0.834766,
2010-05-06, 00:59:04,VALID,1002.49,VALID,0,VALID,95.4907,VALID,0,VALID,25.5142,VALID,345,VALID,0.814844,
2010-05-06, 01:00:05,VALID,1002.47,VALID,0,VALID,95.3686,VALID,0,VALID,25.5142,VALID,345,VALID,0.514063,
2010-05-06, 01:01:05,VALID,1002.47,VALID,0,VALID,95.1779,VALID,0,VALID,25.5337,VALID,348,VALID,0.589063,
2010-05-06, 01:02:05,VALID,1002.46,VALID,0,VALID,95.0635,VALID,0,VALID,25.5532,VALID,348,VALID,0.469141,
2010-05-06, 01:03:05,VALID,1002.42,VALID,0,VALID,95.0711,VALID,0,VALID,25.5551,VALID,348,VALID,0.49375,
2010-05-06, 01:04:05,VALID,1002.42,VALID,0,VALID,95.0864,VALID,0,VALID,25.5142,VALID,348,VALID,0.551562,
2010-05-06, 01:05:05,VALID,1002.42,VALID,0,VALID,95.1169,VALID,0,VALID,25.5357,VALID,348,VALID,0.326953,
2010-05-06, 01:06:05,VALID,1002.41,VALID,0,VALID,95.1779,VALID,0,VALID,25.4948,VALID,348,VALID,0.337891,
2010-05-06, 01:07:05,VALID,1002.38,VALID,0,VALID,95.2542,VALID,0,VALID,25.4967,VALID,348,VALID,0.4625,
2010-05-06, 01:08:05,VALID,1002.4,VALID,0,VALID,95.3305,VALID,0,VALID,25.4967,VALID,348,VALID,0.444141,
2010-05-06, 01:09:05,VALID,1002.37,VALID,0,VALID,95.4068,VALID,0,VALID,25.4558,VALID,348,VALID,0.551172,
2010-05-06, 01:10:05,VALID,1002.42,VALID,0,VALID,95.4754,VALID,0,VALID,25.4558,VALID,348,VALID,0.293359,
2010-05-06, 01:11:05,VALID,1002.39,VALID,0,VALID,95.4983,VALID,0,VALID,25.4967,VALID,349,VALID,0.755078,
2010-05-06, 01:12:05,VALID,1002.38,VALID,0,VALID,95.5288,VALID,0,VALID,25.4753,VALID,20,VALID,0.477734,
2010-05-06, 01:13:05,VALID,1002.38,VALID,0,VALID,95.5365,VALID,0,VALID,25.4753,VALID,20,VALID,0.562891,
2010-05-06, 01:14:05,VALID,1002.41,VALID,0,VALID,95.5746,VALID,0,VALID,25.5181,VALID,20,VALID,0.523438,
2010-05-06, 01:15:05,VALID,1002.42,VALID,0,VALID,95.5594,VALID,0.100563,VALID,25.4928,VALID,20,VALID,0.704297,
2010-05-06, 01:16:05,VALID,1002.39,VALID,0,VALID,95.5822,VALID,0,VALID,25.4928,VALID,20,VALID,0.619922,
2010-05-06, 01:17:05,VALID,1002.39,VALID,0,VALID,95.5441,VALID,0,VALID,25.5318,VALID,20,VALID,0.364844,
2010-05-06, 01:18:05,VALID,1002.38,VALID,0,VALID,95.4983,VALID,0.100563,VALID,25.5532,VALID,20,VALID,0.229297,
2010-05-06, 01:19:05,VALID,1002.36,VALID,0,VALID,95.4907,VALID,0.100563,VALID,25.5513,VALID,20,VALID,0.452734,
2010-05-06, 01:20:05,VALID,1002.38,VALID,0,VALID,95.4754,VALID,0.100563,VALID,25.5532,VALID,20,VALID,0.660156,
2010-05-06, 01:21:05,VALID,1002.38,VALID,0,VALID,95.4983,VALID,0,VALID,25.5727,VALID,13,VALID,0.762109,
2010-05-06, 01:22:05,VALID,1002.38,VALID,0,VALID,95.4831,VALID,0.100563,VALID,25.5902,VALID,13,VALID,0.587891,
2010-05-06, 01:23:05,VALID,1002.37,VALID,0,VALID,95.3839,VALID,0.100563,VALID,25.6116,VALID,15,VALID,0.452734,
2010-05-06, 01:24:05,VALID,1002.41,VALID,0,VALID,95.3534,VALID,0.100563,VALID,25.6506,VALID,15,VALID,0.257031,
2010-05-06, 01:25:05,VALID,1002.36,VALID,0,VALID,95.2847,VALID,0,VALID,25.6292,VALID,15,VALID,0.279687,
2010-05-06, 01:26:05,VALID,1002.4,VALID,0,VALID,95.2542,VALID,0.100563,VALID,25.6097,VALID,15,VALID,0.497656,
2010-05-06, 01:27:05,VALID,1002.37,VALID,0,VALID,95.2161,VALID,0.100563,VALID,25.5902,VALID,15,VALID,0.345703,
2010-05-06, 01:28:05,VALID,1002.38,VALID,0,VALID,95.2008,VALID,0,VALID,25.5921,VALID,15,VALID,0.402344,
2010-05-06, 01:29:05,VALID,1002.39,VALID,0,VALID,95.2161,VALID,0.100563,VALID,25.5707,VALID,15,VALID,0.390234,
2010-05-06, 01:30:05,VALID,1002.37,VALID,0,VALID,95.2618,VALID,0,VALID,25.5746,VALID,15,VALID,0.350391,
2010-05-06, 01:31:05,VALID,1002.36,VALID,0,VALID,95.3229,VALID,0,VALID,25.5551,VALID,15,VALID,0.589844,
2010-05-06, 01:32:05,VALID,1002.36,VALID,0,VALID,95.3686,VALID,0,VALID,25.5551,VALID,15,VALID,0.414063,
2010-05-06, 01:33:05,VALID,1002.36,VALID,0,VALID,95.4373,VALID,0,VALID,25.5727,VALID,16,VALID,0.510938,
2010-05-06, 01:34:05,VALID,1002.32,VALID,0,VALID,95.4449,VALID,0,VALID,25.633,VALID,26,VALID,0.648438,
2010-05-06, 01:35:05,VALID,1002.31,VALID,0,VALID,95.3305,VALID,0,VALID,25.6895,VALID,16,VALID,0.551562,
2010-05-06, 01:36:05,VALID,1002.31,VALID,0,VALID,95.0787,VALID,0,VALID,25.6895,VALID,15,VALID,0.533203,
2010-05-06, 01:37:05,VALID,1002.31,VALID,0,VALID,94.8422,VALID,0,VALID,25.7109,VALID,13,VALID,0.411328,
2010-05-06, 01:38:05,VALID,1002.3,VALID,0,VALID,94.682,VALID,0,VALID,25.6915,VALID,9,VALID,0.858594,
2010-05-06, 01:39:05,VALID,1002.27,VALID,0,VALID,94.6973,VALID,0,VALID,25.6506,VALID,9,VALID,0.854297,
2010-05-06, 01:40:05,VALID,1002.24,VALID,0,VALID,94.8041,VALID,0,VALID,25.7304,VALID,23,VALID,0.85,
2010-05-06, 01:41:05,VALID,1002.24,VALID,0,VALID,94.5829,VALID,0,VALID,25.7674,VALID,360,VALID,0.485547,
2010-05-06, 01:42:05,VALID,1002.25,VALID,0,VALID,94.2243,VALID,0,VALID,25.7674,VALID,360,VALID,0.769922,
2010-05-06, 01:43:05,VALID,1002.2,VALID,0,VALID,94.1633,VALID,0,VALID,25.748,VALID,360,VALID,0.572266,
2010-05-06, 01:44:05,VALID,1002.21,VALID,0,VALID,94.209,VALID,0,VALID,25.7285,VALID,2,VALID,0.633203,
2010-05-06, 01:45:05,VALID,1002.22,VALID,0,VALID,94.1938,VALID,0.100563,VALID,25.7071,VALID,2,VALID,0.321094,
2010-05-06, 01:46:05,VALID,1002.2,VALID,0,VALID,94.1862,VALID,0,VALID,25.67,VALID,9,VALID,0.769141,
2010-05-06, 01:47:05,VALID,1002.18,VALID,0,VALID,94.4303,VALID,0,VALID,25.6486,VALID,27,VALID,0.75,
2010-05-06, 01:48:05,VALID,1002.17,VALID,0,VALID,94.4532,VALID,0,VALID,25.6681,VALID,6,VALID,0.806641,
2010-05-06, 01:49:05,VALID,1002.15,VALID,0,VALID,94.4074,VALID,0,VALID,25.6895,VALID,357,VALID,0.767578,
2010-05-06, 01:50:05,VALID,1002.13,VALID,0,VALID,94.3464,VALID,0,VALID,25.67,VALID,352,VALID,0.603516,
2010-05-06, 01:51:05,VALID,1002.14,VALID,0,VALID,94.2624,VALID,0,VALID,25.6292,VALID,352,VALID,0.800391,
2010-05-06, 01:52:05,VALID,1002.13,VALID,0,VALID,94.3464,VALID,0,VALID,25.6097,VALID,354,VALID,0.693359,
2010-05-06, 01:53:05,VALID,1002.13,VALID,0,VALID,94.5447,VALID,0,VALID,25.6311,VALID,1,VALID,0.938672,
2010-05-06, 01:54:05,VALID,1002.13,VALID,0,VALID,94.6439,VALID,0,VALID,25.6506,VALID,7,VALID,0.628125,
2010-05-06, 01:55:05,VALID,1002.12,VALID,0,VALID,94.5981,VALID,0.100563,VALID,25.67,VALID,6,VALID,0.533984,
2010-05-06, 01:56:05,VALID,1002.13,VALID,0,VALID,94.4608,VALID,0,VALID,25.6486,VALID,6,VALID,0.3875,
2010-05-06, 01:57:05,VALID,1002.13,VALID,0,VALID,94.4455,VALID,0,VALID,25.6506,VALID,6,VALID,0.540234,
2010-05-06, 01:58:05,VALID,1002.13,VALID,0,VALID,94.5218,VALID,0.100563,VALID,25.6486,VALID,6,VALID,0.582812,
2010-05-06, 01:59:05,VALID,1002.09,VALID,0,VALID,94.4837,VALID,0,VALID,25.67,VALID,6,VALID,0.223047,
2010-05-06, 02:00:05,VALID,1002.12,VALID,0,VALID,94.3769,VALID,0,VALID,25.67,VALID,6,VALID,0.649609,
2010-05-06, 02:01:05,VALID,1002.07,VALID,0,VALID,94.4379,VALID,0,VALID,25.6681,VALID,360,VALID,0.880859,
2010-05-06, 02:02:05,VALID,1002.05,VALID,0,VALID,94.4074,VALID,0,VALID,25.7285,VALID,16,VALID,1.02617,
2010-05-06, 02:03:05,VALID,1002.05,VALID,0,VALID,94.3082,VALID,0,VALID,25.8064,VALID,21,VALID,0.7875,
2010-05-06, 02:04:05,VALID,1002.06,VALID,0,VALID,94.0336,VALID,0,VALID,25.9038,VALID,27,VALID,0.574609,
2010-05-06, 02:05:05,VALID,1002.06,VALID,0,VALID,93.5377,VALID,0,VALID,25.9213,VALID,24,VALID,0.234766,
2010-05-06, 02:06:05,VALID,1002.04,VALID,0,VALID,93.1105,VALID,0,VALID,25.9427,VALID,24,VALID,0.645703,
2010-05-06, 02:07:05,VALID,1002.04,VALID,0,VALID,92.6146,VALID,0,VALID,25.9427,VALID,5,VALID,0.634375,
2010-05-06, 02:08:05,VALID,1002.04,VALID,0,VALID,92.8435,VALID,0,VALID,25.9018,VALID,45,VALID,0.751172,
2010-05-06, 02:09:05,VALID,1002.06,VALID,0,VALID,92.9884,VALID,0,VALID,25.9408,VALID,17,VALID,0.718359,
2010-05-06, 02:10:05,VALID,1002.03,VALID,0,VALID,92.4468,VALID,0.100563,VALID,25.9797,VALID,360,VALID,0.761328,
2010-05-06, 02:11:05,VALID,1002.03,VALID,0,VALID,91.8822,VALID,0.100563,VALID,26.0012,VALID,17,VALID,0.677344,
2010-05-06, 02:12:05,VALID,1002.03,VALID,0,VALID,91.3864,VALID,0.100563,VALID,25.9797,VALID,27,VALID,0.539063,
2010-05-06, 02:13:05,VALID,1002.04,VALID,0,VALID,91.7449,VALID,0.100563,VALID,25.9622,VALID,12,VALID,0.709375,
2010-05-06, 02:14:05,VALID,1002.03,VALID,0,VALID,91.8746,VALID,0,VALID,25.9018,VALID,12,VALID,0.575781,
2010-05-06, 02:15:05,VALID,1002.04,VALID,0,VALID,92.6833,VALID,0.100563,VALID,25.8434,VALID,12,VALID,0.719922,
2010-05-06, 02:16:05,VALID,1002.05,VALID,0,VALID,93.08,VALID,0,VALID,25.8239,VALID,6,VALID,0.698438,
2010-05-06, 02:17:05,VALID,1002.05,VALID,0,VALID,93.1944,VALID,0,VALID,25.8259,VALID,7,VALID,0.828516,
2010-05-06, 02:18:05,VALID,1002.07,VALID,0,VALID,93.1868,VALID,0,VALID,25.8259,VALID,5,VALID,0.287109,
2010-05-06, 02:19:05,VALID,1002.1,VALID,0,VALID,93.141,VALID,0,VALID,25.8259,VALID,5,VALID,0.511328,
2010-05-06, 02:20:05,VALID,1002.11,VALID,0,VALID,93.2249,VALID,0.100563,VALID,25.8239,VALID,24,VALID,0.489844,
2010-05-06, 02:21:05,VALID,1002.09,VALID,0,VALID,93.1563,VALID,0.100563,VALID,25.8044,VALID,17,VALID,0.586328,
2010-05-06, 02:22:05,VALID,1002.1,VALID,0,VALID,93.1029,VALID,0.100563,VALID,25.785,VALID,359,VALID,0.520312,
2010-05-06, 02:23:05,VALID,1002.09,VALID,0,VALID,93.347,VALID,0,VALID,25.785,VALID,33,VALID,0.664844,
2010-05-06, 02:24:05,VALID,1002.08,VALID,0,VALID,93.1791,VALID,0,VALID,25.7869,VALID,33,VALID,0.505078,
2010-05-06, 02:25:05,VALID,1002.05,VALID,0,VALID,93.2554,VALID,0,VALID,25.7265,VALID,34,VALID,0.511719,
2010-05-06, 02:26:05,VALID,1001.99,VALID,0,VALID,93.3394,VALID,0,VALID,25.6486,VALID,26,VALID,0.65625,
2010-05-06, 02:27:05,VALID,1002,VALID,0,VALID,93.7742,VALID,0,VALID,25.67,VALID,13,VALID,0.508984,
2010-05-06, 02:28:05,VALID,1001.96,VALID,0,VALID,93.82,VALID,0.100563,VALID,25.6311,VALID,2,VALID,0.846875,
2010-05-06, 02:29:05,VALID,1001.94,VALID,0,VALID,94.0412,VALID,0,VALID,25.6292,VALID,17,VALID,0.81875,
2010-05-06, 02:30:05,VALID,1001.96,VALID,0,VALID,94.0641,VALID,0,VALID,25.709,VALID,11,VALID,0.943359,
2010-05-06, 02:31:05,VALID,1001.98,VALID,0,VALID,93.7895,VALID,0,VALID,25.7674,VALID,360,VALID,0.479688,
2010-05-06, 02:32:05,VALID,1001.98,VALID,0,VALID,93.4919,VALID,0,VALID,25.7674,VALID,1,VALID,0.303906,
2010-05-06, 02:33:05,VALID,1001.96,VALID,0,VALID,93.4919,VALID,0,VALID,25.746,VALID,28,VALID,0.757031,
2010-05-06, 02:34:05,VALID,1001.99,VALID,0,VALID,93.4919,VALID,0,VALID,25.8064,VALID,17,VALID,0.99375,
2010-05-06, 02:35:05,VALID,1002.02,VALID,0,VALID,93.1868,VALID,0.100563,VALID,25.9018,VALID,25,VALID,0.673828,
2010-05-06, 02:36:05,VALID,1002.03,VALID,0,VALID,91.7144,VALID,0,VALID,25.9817,VALID,27,VALID,0.230859,
2010-05-06, 02:37:05,VALID,1002.04,VALID,0,VALID,91.2185,VALID,0.100563,VALID,25.9408,VALID,27,VALID,0.0230469,
2010-05-06, 02:38:05,VALID,1002.03,VALID,0,VALID,91.1117,VALID,0.100563,VALID,25.9622,VALID,27,VALID,0,
2010-05-06, 02:39:05,VALID,1002.04,VALID,0,VALID,91.0431,VALID,0,VALID,25.9408,VALID,27,VALID,0,
2010-05-06, 02:40:05,VALID,1002.04,VALID,0,VALID,91.1346,VALID,0,VALID,25.9213,VALID,27,VALID,0,
2010-05-06, 02:41:05,VALID,1002.03,VALID,0,VALID,91.2719,VALID,0,VALID,25.8843,VALID,13,VALID,0,
2010-05-06, 02:42:05,VALID,1002,VALID,0,VALID,91.3101,VALID,0.100563,VALID,25.785,VALID,13,VALID,0.508984,
2010-05-06, 02:43:05,VALID,1001.99,VALID,0,VALID,92.2942,VALID,0,VALID,25.7674,VALID,13,VALID,0.6625,
2010-05-06, 02:44:05,VALID,1001.95,VALID,0,VALID,92.4697,VALID,0.100563,VALID,25.6876,VALID,6,VALID,1.02969,
2010-05-06, 02:45:05,VALID,1001.94,VALID,0,VALID,93.3546,VALID,0,VALID,25.6895,VALID,16,VALID,0.899219,
2010-05-06, 02:46:05,VALID,1001.91,VALID,0,VALID,93.2249,VALID,0,VALID,25.6915,VALID,357,VALID,0.907031,
2010-05-06, 02:47:05,VALID,1001.9,VALID,0,VALID,93.1639,VALID,0,VALID,25.5921,VALID,357,VALID,0.525781,
2010-05-06, 02:48:05,VALID,1001.86,VALID,0,VALID,93.8123,VALID,0,VALID,25.5921,VALID,22,VALID,1.32227,
2010-05-06, 02:49:05,VALID,1001.84,VALID,0,VALID,93.8429,VALID,0,VALID,25.7304,VALID,28,VALID,0.903125,
2010-05-06, 02:50:05,VALID,1001.84,VALID,0,VALID,93.3012,VALID,0,VALID,25.748,VALID,4,VALID,0.948438,
2010-05-06, 02:51:05,VALID,1001.8,VALID,0,VALID,92.9884,VALID,0,VALID,25.7889,VALID,26,VALID,1.00234,
2010-05-06, 02:52:05,VALID,1001.8,VALID,0,VALID,92.7901,VALID,0,VALID,25.8083,VALID,35,VALID,1.10312,
2010-05-06, 02:53:05,VALID,1001.76,VALID,0,VALID,92.813,VALID,0,VALID,25.8259,VALID,18,VALID,1.5207,
2010-05-06, 02:54:05,VALID,1001.76,VALID,0,VALID,91.867,VALID,0,VALID,25.9447,VALID,33,VALID,0.939453,
2010-05-06, 02:55:05,VALID,1001.72,VALID,0,VALID,90.9439,VALID,0,VALID,25.9836,VALID,11,VALID,0.971875,
2010-05-06, 02:56:05,VALID,1001.74,VALID,0,VALID,90.6616,VALID,0,VALID,25.9642,VALID,18,VALID,1.32305,
2010-05-06, 02:57:05,VALID,1001.7,VALID,0,VALID,90.6769,VALID,0,VALID,25.9622,VALID,21,VALID,1.41562,
2010-05-06, 02:58:05,VALID,1001.73,VALID,0,VALID,90.4938,VALID,0,VALID,26.0012,VALID,38,VALID,0.515625,
2010-05-06, 02:59:05,VALID,1001.72,VALID,0,VALID,90.2497,VALID,0,VALID,26.0421,VALID,13,VALID,1.01172,
2010-05-06, 03:00:05,VALID,1001.68,VALID,0,VALID,90.0971,VALID,0,VALID,26.0596,VALID,351,VALID,1.14258,
2010-05-06, 03:01:05,VALID,1001.69,VALID,0,VALID,89.6927,VALID,0,VALID,26.0985,VALID,23,VALID,0.860156,
2010-05-06, 03:02:05,VALID,1001.7,VALID,0,VALID,89.3723,VALID,0,VALID,26.1375,VALID,23,VALID,0.339453,
2010-05-06, 03:03:05,VALID,1001.72,VALID,0,VALID,89.1206,VALID,0,VALID,26.1375,VALID,1,VALID,1.18398,
2010-05-06, 03:04:05,VALID,1001.75,VALID,0,VALID,88.9222,VALID,0,VALID,26.1979,VALID,7,VALID,0.825781,
2010-05-06, 03:05:05,VALID,1001.71,VALID,0,VALID,88.8154,VALID,0,VALID,26.1959,VALID,6,VALID,0.778125,
2010-05-06, 03:06:05,VALID,1001.74,VALID,0,VALID,88.762,VALID,0,VALID,26.2154,VALID,19,VALID,1.28359,
2010-05-06, 03:07:05,VALID,1001.74,VALID,0,VALID,88.64,VALID,0,VALID,26.2349,VALID,20,VALID,1.58477,
2010-05-06, 03:08:05,VALID,1001.73,VALID,0,VALID,88.4187,VALID,0,VALID,26.3128,VALID,16,VALID,0.906641,
2010-05-06, 03:09:05,VALID,1001.7,VALID,0,VALID,88.2204,VALID,0,VALID,26.3343,VALID,356,VALID,0.971875,
2010-05-06, 03:10:05,VALID,1001.71,VALID,0,VALID,88.0907,VALID,0,VALID,26.3323,VALID,36,VALID,0.69375,
2010-05-06, 03:11:05,VALID,1001.72,VALID,0,VALID,88.1822,VALID,0,VALID,26.3148,VALID,7,VALID,0.796875,
2010-05-06, 03:12:05,VALID,1001.69,VALID,0,VALID,88.2356,VALID,0,VALID,26.2953,VALID,5,VALID,1.20703,
2010-05-06, 03:13:05,VALID,1001.7,VALID,0,VALID,88.2127,VALID,0,VALID,26.2759,VALID,20,VALID,0.711719,
2010-05-06, 03:14:05,VALID,1001.68,VALID,0,VALID,88.4264,VALID,0,VALID,26.1765,VALID,359,VALID,0.767187,
2010-05-06, 03:15:05,VALID,1001.69,VALID,0,VALID,88.5026,VALID,0.100563,VALID,26.116,VALID,6,VALID,0.587109,
2010-05-06, 03:16:05,VALID,1001.7,VALID,0,VALID,88.9604,VALID,0.100563,VALID,26.0381,VALID,19,VALID,0.460938,
2010-05-06, 03:17:05,VALID,1001.68,VALID,0,VALID,89.4944,VALID,0.100563,VALID,25.9992,VALID,19,VALID,0.585547,
2010-05-06, 03:18:05,VALID,1001.67,VALID,0,VALID,90.036,VALID,0.100563,VALID,25.9602,VALID,2,VALID,1.10586,
2010-05-06, 03:19:05,VALID,1001.7,VALID,0,VALID,90.6235,VALID,0,VALID,25.9817,VALID,351,VALID,0.6875,
2010-05-06, 03:20:05,VALID,1001.72,VALID,0,VALID,91.0431,VALID,0.100563,VALID,25.9817,VALID,42,VALID,0.714063,
2010-05-06, 03:21:05,VALID,1001.71,VALID,0,VALID,90.6311,VALID,0,VALID,26.0401,VALID,12,VALID,0.805078,
2010-05-06, 03:22:05,VALID,1001.73,VALID,0,VALID,90.3946,VALID,0.100563,VALID,25.9992,VALID,26,VALID,0.488281,
2010-05-06, 03:23:05,VALID,1001.76,VALID,0,VALID,90.3183,VALID,0,VALID,26.0012,VALID,22,VALID,0.753906,
2010-05-06, 03:24:05,VALID,1001.79,VALID,0,VALID,90.8066,VALID,0,VALID,25.9408,VALID,11,VALID,1.0082,
2010-05-06, 03:25:05,VALID,1001.77,VALID,0,VALID,90.8218,VALID,0.100563,VALID,25.9797,VALID,44,VALID,0.694141,
2010-05-06, 03:26:05,VALID,1001.75,VALID,0,VALID,90.3031,VALID,0,VALID,26.0187,VALID,29,VALID,0.973047,
2010-05-06, 03:27:05,VALID,1001.78,VALID,0,VALID,89.9064,VALID,0.100563,VALID,26.0596,VALID,28,VALID,0.790234,
2010-05-06, 03:28:05,VALID,1001.81,VALID,0,VALID,89.7538,VALID,0,VALID,26.0576,VALID,28,VALID,0.665625,
2010-05-06, 03:29:05,VALID,1001.79,VALID,0,VALID,89.5249,VALID,0,VALID,26.0576,VALID,12,VALID,0.790625,
2010-05-06, 03:30:05,VALID,1001.8,VALID,0,VALID,89.4257,VALID,0.100563,VALID,26.0576,VALID,9,VALID,1.08945,
2010-05-06, 03:31:05,VALID,1001.82,VALID,0,VALID,89.2732,VALID,0.100563,VALID,26.0576,VALID,25,VALID,1.06953,
2010-05-06, 03:32:05,VALID,1001.82,VALID,0,VALID,89.2732,VALID,0,VALID,26.0187,VALID,14,VALID,1.2793,
2010-05-06, 03:33:05,VALID,1001.85,VALID,0,VALID,89.1664,VALID,0.100563,VALID,26.0596,VALID,18,VALID,1.33125,
2010-05-06, 03:34:05,VALID,1001.83,VALID,0,VALID,88.9146,VALID,0,VALID,26.0966,VALID,7,VALID,1.43477,
2010-05-06, 03:35:05,VALID,1001.83,VALID,0,VALID,88.3501,VALID,0.100563,VALID,26.157,VALID,15,VALID,1.86719,
2010-05-06, 03:36:05,VALID,1001.85,VALID,0,VALID,88.0144,VALID,0,VALID,26.194,VALID,349,VALID,0.864062,
2010-05-06, 03:37:05,VALID,1001.83,VALID,0,VALID,88.0068,VALID,0.100563,VALID,26.1745,VALID,12,VALID,0.916406,
2010-05-06, 03:38:05,VALID,1001.89,VALID,0,VALID,87.8237,VALID,0.100563,VALID,26.1745,VALID,23,VALID,1.37188,
2010-05-06, 03:39:05,VALID,1001.88,VALID,0,VALID,87.6329,VALID,0,VALID,26.2329,VALID,18,VALID,1.09609,
2010-05-06, 03:40:05,VALID,1001.89,VALID,0,VALID,87.4422,VALID,0,VALID,26.2739,VALID,347,VALID,1.03555,
2010-05-06, 03:41:04,VALID,1001.89,VALID,0,VALID,87.3507,VALID,0,VALID,26.2524,VALID,17,VALID,0.942578,
2010-05-06, 03:42:04,VALID,1001.88,VALID,0,VALID,87.2362,VALID,0.100563,VALID,26.2719,VALID,23,VALID,1.34961,
2010-05-06, 03:43:04,VALID,1001.9,VALID,0,VALID,87.015,VALID,0,VALID,26.3538,VALID,27,VALID,0.526563,
2010-05-06, 03:44:04,VALID,1001.9,VALID,0,VALID,86.9769,VALID,0,VALID,26.3323,VALID,27,VALID,0.576953,